Time,TemperatureF,DewpointF,PressureIn,WindDirection,WindDirectionDegrees,WindSpeedMPH,WindSpeedGustMPH,Humidity,HourlyPrecipIn,Conditions,Clouds,dailyrainin,SolarRadiationWatts/m^2,SoftwareType,DateUTC
2013-08-30 00:03:00,79.0,73.4,29.73,NW,319,1.0,1.0,83,0.00,,SKC,0.00,0.00,VWS V14.00,2013-08-30 05:03:00,
2013-08-30 00:08:00,78.8,73.2,29.73,NW,319,0.0,0.0,83,0.00,,SKC,0.00,0.00,VWS V14.00,2013-08-30 05:08:00,
2013-08-30 00:13:00,78.7,73.1,29.73,NW,326,0.0,0.0,83,0.00,,SKC,0.00,0.00,VWS V14.00,2013-08-30 05:13:00,
2013-08-30 00:18:00,78.5,72.9,29.73,NW,326,0.0,0.0,83,0.00,,SKC,0.00,0.00,VWS V14.00,2013-08-30 05:18:00,
2013-08-30 00:23:00,78.4,72.8,29.73,North,351,0.0,2.0,83,0.00,,SKC,0.00,0.00,VWS V14.00,2013-08-30 05:23:00,
2013-08-30 00:28:00,78.2,73.0,29.73,WNW,283,0.0,0.0,84,0.00,,SKC,0.00,0.00,VWS V14.00,2013-08-30 05:28:00,
2013-08-30 00:33:00,78.0,72.8,29.73,WNW,291,0.0,1.0,84,0.00,,SKC,0.00,0.00,VWS V14.00,2013-08-30 05:33:00,
2013-08-30 00:38:00,77.9,73.0,29.73,SSE,159,1.0,2.0,85,0.00,,SKC,0.00,0.00,VWS V14.00,2013-08-30 05:38:00,
2013-08-30 00:44:00,77.8,72.9,29.73,NNE,26,0.0,1.0,85,0.00,,SKC,0.00,0.00,VWS V14.00,2013-08-30 05:44:00,
2013-08-30 00:49:00,77.6,73.1,29.73,WNW,282,0.0,1.0,86,0.00,,SKC,0.00,0.00,VWS V14.00,2013-08-30 05:49:00,
2013-08-30 00:54:00,77.5,73.0,29.73,NNW,342,0.0,1.0,86,0.00,,SKC,0.00,0.00,VWS V14.00,2013-08-30 05:54:00,
2013-08-30 00:59:00,77.5,73.0,29.74,NW,309,0.0,1.0,86,0.00,,SKC,0.00,0.00,VWS V14.00,2013-08-30 05:59:00,
2013-08-30 01:04:00,77.4,72.9,29.74,NNE,12,0.0,0.0,86,0.00,,SKC,0.00,0.00,VWS V14.00,2013-08-30 06:04:00,
2013-08-30 01:09:00,77.3,72.8,29.74,NW,312,3.0,4.0,86,0.00,,SKC,0.00,0.00,VWS V14.00,2013-08-30 06:09:00,
2013-08-30 01:12:00,77.3,72.8,29.74,NW,311,0.0,4.0,86,0.00,,SKC,0.00,0.00,VWS V14.00,2013-08-30 06:12:00,
2013-08-30 01:17:00,77.3,72.4,29.74,NW,311,1.0,1.0,85,0.00,,SKC,0.00,0.00,VWS V14.00,2013-08-30 06:17:00,
2013-08-30 01:22:00,77.2,72.7,29.74,WNW,288,1.0,3.0,86,0.00,,SKC,0.00,0.00,VWS V14.00,2013-08-30 06:22:00,
2013-08-30 01:27:00,77.1,72.6,29.74,WNW,288,0.0,3.0,86,0.00,,SKC,0.00,0.00,VWS V14.00,2013-08-30 06:27:00,
2013-08-30 01:32:00,76.9,72.4,29.74,WNW,288,0.0,1.0,86,0.00,,SKC,0.00,0.00,VWS V14.00,2013-08-30 06:32:00,
2013-08-30 01:37:00,76.9,72.4,29.74,WNW,288,1.0,1.0,86,0.00,,SKC,0.00,0.00,VWS V14.00,2013-08-30 06:37:00,
2013-08-30 01:42:00,76.7,71.9,29.74,WNW,288,0.0,0.0,85,0.00,,SKC,0.00,0.00,VWS V14.00,2013-08-30 06:42:00,
2013-08-30 01:47:00,76.6,72.1,29.74,West,265,0.0,3.0,86,0.00,,SKC,0.00,0.00,VWS V14.00,2013-08-30 06:47:00,
2013-08-30 01:52:00,76.5,72.0,29.74,NNW,338,0.0,2.0,86,0.00,,SKC,0.00,0.00,VWS V14.00,2013-08-30 06:52:00,
2013-08-30 01:57:00,76.3,71.8,29.74,NNW,338,0.0,1.0,86,0.00,,SKC,0.00,0.00,VWS V14.00,2013-08-30 06:57:00,
2013-08-30 02:02:00,76.1,71.3,29.74,ESE,102,0.0,1.0,85,0.00,,SKC,0.00,0.00,VWS V14.00,2013-08-30 07:02:00,
2013-08-30 02:07:00,76.0,71.5,29.74,North,351,0.0,2.0,86,0.00,,SKC,0.00,0.00,VWS V14.00,2013-08-30 07:07:00,
2013-08-30 02:12:00,75.8,71.3,29.74,NNW,339,0.0,2.0,86,0.00,,SKC,0.00,0.00,VWS V14.00,2013-08-30 07:12:00,
2013-08-30 02:17:00,75.7,71.2,29.74,NNW,336,0.0,1.0,86,0.00,,SKC,0.00,0.00,VWS V14.00,2013-08-30 07:17:00,
2013-08-30 02:22:00,75.5,71.0,29.74,NNW,336,0.0,2.0,86,0.00,,SKC,0.00,0.00,VWS V14.00,2013-08-30 07:22:00,
2013-08-30 02:27:00,75.3,70.8,29.74,ENE,64,0.0,4.0,86,0.00,,SKC,0.00,0.00,VWS V14.00,2013-08-30 07:27:00,
2013-08-30 02:32:00,75.2,70.7,29.74,NW,317,1.0,2.0,86,0.00,,SKC,0.00,0.00,VWS V14.00,2013-08-30 07:32:00,
2013-08-30 02:37:00,75.0,70.9,29.74,NW,325,0.0,2.0,87,0.00,,SKC,0.00,0.00,VWS V14.00,2013-08-30 07:37:00,
2013-08-30 02:42:00,74.8,70.7,29.75,NW,320,2.0,3.0,87,0.00,,SKC,0.00,0.00,VWS V14.00,2013-08-30 07:42:00,
2013-08-30 02:47:00,74.7,70.6,29.74,NW,320,1.0,2.0,87,0.00,,SKC,0.00,0.00,VWS V14.00,2013-08-30 07:47:00,
2013-08-30 02:52:00,74.5,70.4,29.74,NW,320,0.0,1.0,87,0.00,,SKC,0.00,0.00,VWS V14.00,2013-08-30 07:52:00,
2013-08-30 02:57:00,74.3,70.2,29.75,NW,320,0.0,2.0,87,0.00,,SKC,0.00,0.00,VWS V14.00,2013-08-30 07:57:00,
2013-08-30 03:02:00,74.2,70.4,29.75,NNE,15,0.0,4.0,88,0.00,,SKC,0.00,0.00,VWS V14.00,2013-08-30 08:02:00,
2013-08-30 03:07:00,74.0,70.2,29.75,NW,319,0.0,5.0,88,0.00,,SKC,0.00,0.00,VWS V14.00,2013-08-30 08:07:00,
2013-08-30 03:13:00,73.8,70.0,29.75,NW,319,0.0,0.0,88,0.00,,SKC,0.00,0.00,VWS V14.00,2013-08-30 08:13:00,
2013-08-30 03:18:00,73.7,69.9,29.75,WNW,291,2.0,3.0,88,0.00,,SKC,0.00,0.00,VWS V14.00,2013-08-30 08:18:00,
2013-08-30 03:23:00,73.5,70.1,29.75,NW,325,1.0,2.0,89,0.00,,SKC,0.00,0.00,VWS V14.00,2013-08-30 08:23:00,
2013-08-30 03:28:00,73.3,69.9,29.75,WNW,293,1.0,2.0,89,0.00,,SKC,0.00,0.00,VWS V14.00,2013-08-30 08:28:00,
2013-08-30 03:33:00,73.2,69.8,29.75,WNW,293,1.0,2.0,89,0.00,,SKC,0.00,0.00,VWS V14.00,2013-08-30 08:33:00,
2013-08-30 03:38:00,73.0,69.9,29.75,NW,325,0.0,1.0,90,0.00,,SKC,0.00,0.00,VWS V14.00,2013-08-30 08:38:00,
2013-08-30 03:43:00,72.9,69.8,29.75,NW,325,1.0,2.0,90,0.00,,SKC,0.00,0.00,VWS V14.00,2013-08-30 08:43:00,
2013-08-30 03:48:00,72.8,69.7,29.75,NW,325,1.0,2.0,90,0.00,,SKC,0.00,0.00,VWS V14.00,2013-08-30 08:48:00,
2013-08-30 03:53:00,72.6,69.5,29.75,NW,324,1.0,2.0,90,0.00,,SKC,0.00,0.00,VWS V14.00,2013-08-30 08:53:00,
2013-08-30 03:58:00,72.4,69.3,29.75,NW,323,0.0,2.0,90,0.00,,SKC,0.00,0.00,VWS V14.00,2013-08-30 08:58:00,
2013-08-30 04:03:00,72.3,69.2,29.75,NW,323,0.0,1.0,90,0.00,,SKC,0.00,0.00,VWS V14.00,2013-08-30 09:03:00,
2013-08-30 04:08:00,72.2,69.4,29.75,NW,313,0.0,3.0,91,0.00,,SKC,0.00,0.00,VWS V14.00,2013-08-30 09:08:00,
2013-08-30 04:13:00,72.0,69.2,29.76,NW,313,0.0,1.0,91,0.00,,SKC,0.00,0.00,VWS V14.00,2013-08-30 09:13:00,
2013-08-30 04:18:00,71.9,69.1,29.76,NW,313,0.0,2.0,91,0.00,,SKC,0.00,0.00,VWS V14.00,2013-08-30 09:18:00,
2013-08-30 04:23:00,71.8,69.0,29.76,NW,313,0.0,1.0,91,0.00,,SKC,0.00,0.00,VWS V14.00,2013-08-30 09:23:00,
2013-08-30 04:28:00,71.6,68.8,29.76,NW,325,0.0,1.0,91,0.00,,SKC,0.00,0.00,VWS V14.00,2013-08-30 09:28:00,
2013-08-30 04:33:00,71.5,69.1,29.76,NW,311,0.0,2.0,92,0.00,,SKC,0.00,0.00,VWS V14.00,2013-08-30 09:33:00,
2013-08-30 04:38:00,71.3,68.9,29.76,ENE,59,0.0,2.0,92,0.00,,SKC,0.00,0.00,VWS V14.00,2013-08-30 09:38:00,
2013-08-30 04:43:00,71.2,68.8,29.76,ENE,59,0.0,1.0,92,0.00,,SKC,0.00,0.00,VWS V14.00,2013-08-30 09:43:00,
2013-08-30 04:48:00,71.1,68.7,29.76,NE,44,0.0,1.0,92,0.00,,SKC,0.00,0.00,VWS V14.00,2013-08-30 09:48:00,
2013-08-30 04:53:00,71.0,68.9,29.76,North,360,0.0,2.0,93,0.00,,SKC,0.00,0.00,VWS V14.00,2013-08-30 09:53:00,
2013-08-30 04:58:00,70.9,68.8,29.76,North,360,0.0,1.0,93,0.00,,SKC,0.00,0.00,VWS V14.00,2013-08-30 09:58:00,
2013-08-30 05:03:00,70.8,68.7,29.76,North,360,0.0,1.0,93,0.00,,SKC,0.00,0.00,VWS V14.00,2013-08-30 10:03:00,
2013-08-30 05:08:00,70.7,68.6,29.76,North,360,0.0,1.0,93,0.00,,SKC,0.00,0.00,VWS V14.00,2013-08-30 10:08:00,
2013-08-30 05:13:00,70.6,68.5,29.76,NW,321,0.0,2.0,93,0.00,,SKC,0.00,0.00,VWS V14.00,2013-08-30 10:13:00,
2013-08-30 05:18:00,70.6,68.5,29.76,NW,321,0.0,3.0,93,0.00,,SKC,0.00,0.00,VWS V14.00,2013-08-30 10:18:00,
2013-08-30 05:23:00,70.5,68.7,29.76,NW,310,0.0,3.0,94,0.00,,SKC,0.00,0.00,VWS V14.00,2013-08-30 10:23:00,
2013-08-30 05:28:00,70.4,68.6,29.76,NNE,25,0.0,3.0,94,0.00,,SKC,0.00,0.00,VWS V14.00,2013-08-30 10:28:00,
2013-08-30 05:33:00,70.3,68.5,29.77,NW,306,0.0,3.0,94,0.00,,SKC,0.00,0.00,VWS V14.00,2013-08-30 10:33:00,
2013-08-30 05:38:00,70.3,68.5,29.76,NW,308,0.0,2.0,94,0.00,,SKC,0.00,0.00,VWS V14.00,2013-08-30 10:38:00,
2013-08-30 05:43:00,70.2,68.4,29.77,NW,307,0.0,1.0,94,0.00,,SKC,0.00,0.00,VWS V14.00,2013-08-30 10:43:00,
2013-08-30 05:48:00,70.1,68.3,29.77,NW,308,0.0,3.0,94,0.00,,SKC,0.00,0.00,VWS V14.00,2013-08-30 10:48:00,
2013-08-30 05:53:00,70.0,68.2,29.77,NW,308,0.0,4.0,94,0.00,,SKC,0.00,0.00,VWS V14.00,2013-08-30 10:53:00,
2013-08-30 05:58:00,70.0,68.2,29.77,NW,308,0.0,3.0,94,0.00,,SKC,0.00,0.00,VWS V14.00,2013-08-30 10:58:00,
2013-08-30 06:03:00,69.9,68.1,29.77,NW,307,0.0,2.0,94,0.00,,SKC,0.00,0.00,VWS V14.00,2013-08-30 11:03:00,
2013-08-30 06:08:00,69.8,68.0,29.77,NW,307,2.0,2.0,94,0.00,,SKC,0.00,0.00,VWS V14.00,2013-08-30 11:08:00,
2013-08-30 06:13:00,69.7,67.9,29.77,NW,307,0.0,2.0,94,0.00,,SKC,0.00,0.00,VWS V14.00,2013-08-30 11:13:00,
2013-08-30 06:18:00,69.6,67.8,29.77,WNW,289,0.0,6.0,94,0.00,,SKC,0.00,0.00,VWS V14.00,2013-08-30 11:18:00,
2013-08-30 06:23:00,69.5,67.7,29.77,NW,323,0.0,4.0,94,0.00,,SKC,0.00,0.00,VWS V14.00,2013-08-30 11:23:00,
2013-08-30 06:28:00,69.5,67.7,29.77,NNW,328,0.0,3.0,94,0.00,,SKC,0.00,0.00,VWS V14.00,2013-08-30 11:28:00,
2013-08-30 06:33:00,69.4,67.6,29.77,NW,326,0.0,3.0,94,0.00,,SKC,0.00,0.00,VWS V14.00,2013-08-30 11:33:00,
2013-08-30 06:38:00,69.4,67.9,29.77,ENE,58,0.0,2.0,95,0.00,,SKC,0.00,0.00,VWS V14.00,2013-08-30 11:38:00,
2013-08-30 06:43:00,69.3,67.8,29.77,NE,44,0.0,3.0,95,0.00,,SKC,0.00,5.00,VWS V14.00,2013-08-30 11:43:00,
2013-08-30 06:48:00,69.2,67.7,29.77,WSW,239,1.0,3.0,95,0.00,,SKC,0.00,7.00,VWS V14.00,2013-08-30 11:48:00,
2013-08-30 06:53:00,69.2,67.7,29.77,South,188,0.0,3.0,95,0.00,,SKC,0.00,7.00,VWS V14.00,2013-08-30 11:53:00,
2013-08-30 06:58:00,69.2,67.7,29.78,North,11,0.0,4.0,95,0.00,,SKC,0.00,9.00,VWS V14.00,2013-08-30 11:58:00,
2013-08-30 07:03:00,69.2,67.7,29.78,SE,133,0.0,3.0,95,0.00,,SKC,0.00,9.00,VWS V14.00,2013-08-30 12:03:00,
2013-08-30 07:08:00,69.2,67.7,29.78,NNW,346,2.0,7.0,95,0.00,,SKC,0.00,12.00,VWS V14.00,2013-08-30 12:08:00,
2013-08-30 07:13:00,69.2,67.7,29.79,ENE,60,0.0,3.0,95,0.00,,SKC,0.00,12.00,VWS V14.00,2013-08-30 12:13:00,
2013-08-30 07:18:00,69.2,67.7,29.80,NNW,346,2.0,3.0,95,0.00,,SKC,0.00,14.00,VWS V14.00,2013-08-30 12:18:00,
2013-08-30 07:23:00,69.1,67.6,29.79,North,355,1.0,4.0,95,0.00,,SKC,0.00,16.00,VWS V14.00,2013-08-30 12:23:00,
2013-08-30 07:28:00,69.1,67.6,29.79,North,5,2.0,4.0,95,0.00,,SKC,0.00,19.00,VWS V14.00,2013-08-30 12:28:00,
2013-08-30 07:33:00,69.0,67.2,29.80,ENE,58,0.0,5.0,94,0.00,,SKC,0.00,21.00,VWS V14.00,2013-08-30 12:33:00,
2013-08-30 07:38:00,69.0,67.2,29.80,North,5,1.0,7.0,94,0.00,,SKC,0.00,30.00,VWS V14.00,2013-08-30 12:38:00,
2013-08-30 07:43:00,69.0,67.2,29.80,SSW,210,0.0,3.0,94,0.00,,SKC,0.00,33.00,VWS V14.00,2013-08-30 12:43:00,
2013-08-30 07:48:00,69.0,66.9,29.79,SE,142,2.0,7.0,93,0.00,,SKC,0.00,40.00,VWS V14.00,2013-08-30 12:48:00,
2013-08-30 07:53:00,69.0,66.9,29.79,East,90,0.0,3.0,93,0.00,,SKC,0.00,53.00,VWS V14.00,2013-08-30 12:53:00,
2013-08-30 07:59:00,69.1,67.0,29.79,NNW,331,4.0,4.0,93,0.00,,SKC,0.00,49.00,VWS V14.00,2013-08-30 12:59:00,
2013-08-30 08:04:00,69.2,67.1,29.80,NNW,327,1.0,3.0,93,0.00,,SKC,0.00,58.00,VWS V14.00,2013-08-30 13:04:00,
2013-08-30 08:09:00,69.2,67.1,29.80,ESE,105,4.0,6.0,93,0.00,,SKC,0.00,63.00,VWS V14.00,2013-08-30 13:09:00,
2013-08-30 08:14:00,69.3,66.9,29.80,NNE,32,1.0,2.0,92,0.00,,SKC,0.00,65.00,VWS V14.00,2013-08-30 13:14:00,
2013-08-30 08:19:00,69.3,66.9,29.81,SW,222,1.0,3.0,92,0.00,,SKC,0.00,58.00,VWS V14.00,2013-08-30 13:19:00,
2013-08-30 08:24:00,69.4,66.7,29.81,NE,44,2.0,3.0,91,0.00,,SKC,0.00,79.00,VWS V14.00,2013-08-30 13:24:00,
2013-08-30 08:29:00,69.4,66.7,29.81,ESE,103,1.0,3.0,91,0.00,,SKC,0.00,88.00,VWS V14.00,2013-08-30 13:29:00,
2013-08-30 08:34:00,69.4,66.7,29.81,ENE,78,0.0,0.0,91,0.00,,SKC,0.00,100.00,VWS V14.00,2013-08-30 13:34:00,
2013-08-30 08:39:00,69.5,66.8,29.81,North,355,0.0,1.0,91,0.00,,SKC,0.00,146.00,VWS V14.00,2013-08-30 13:39:00,
2013-08-30 08:44:00,69.8,67.1,29.81,NE,51,0.0,2.0,91,0.00,,SKC,0.00,160.00,VWS V14.00,2013-08-30 13:44:00,
2013-08-30 08:49:00,70.0,66.9,29.82,East,92,0.0,2.0,90,0.00,,SKC,0.00,160.00,VWS V14.00,2013-08-30 13:49:00,
2013-08-30 08:54:00,70.3,67.2,29.82,NNE,30,0.0,2.0,90,0.00,,SKC,0.00,162.00,VWS V14.00,2013-08-30 13:54:00,
2013-08-30 08:59:00,70.6,67.5,29.82,North,11,0.0,1.0,90,0.00,,SKC,0.00,151.00,VWS V14.00,2013-08-30 13:59:00,
2013-08-30 09:04:00,71.0,67.6,29.82,North,5,1.0,2.0,89,0.00,,SKC,0.00,209.00,VWS V14.00,2013-08-30 14:04:00,
2013-08-30 09:09:00,71.2,67.1,29.82,ENE,67,2.0,3.0,87,0.00,,SKC,0.00,239.00,VWS V14.00,2013-08-30 14:09:00,
2013-08-30 09:14:00,71.3,66.9,29.83,ENE,76,1.0,1.0,86,0.00,,SKC,0.00,179.00,VWS V14.00,2013-08-30 14:14:00,
2013-08-30 09:19:00,71.6,66.9,29.83,East,90,0.0,3.0,85,0.00,,SKC,0.00,200.00,VWS V14.00,2013-08-30 14:19:00,
2013-08-30 09:24:00,71.9,66.8,29.83,SSW,193,1.0,2.0,84,0.00,,SKC,0.00,403.00,VWS V14.00,2013-08-30 14:24:00,
2013-08-30 09:29:00,72.2,66.8,29.83,NNE,13,1.0,4.0,83,0.00,,SKC,0.00,183.00,VWS V14.00,2013-08-30 14:29:00,
2013-08-30 09:34:00,72.6,66.8,29.83,ESE,112,3.0,3.0,82,0.00,,SKC,0.00,570.00,VWS V14.00,2013-08-30 14:34:00,
2013-08-30 09:39:00,73.0,67.2,29.83,ESE,105,6.0,6.0,82,0.00,,SKC,0.00,589.00,VWS V14.00,2013-08-30 14:39:00,
2013-08-30 09:44:00,73.7,67.2,29.83,NE,43,1.0,4.0,80,0.00,,SKC,0.00,550.00,VWS V14.00,2013-08-30 14:44:00,
2013-08-30 09:49:00,74.4,67.5,29.83,NNE,22,1.0,2.0,79,0.00,,SKC,0.00,566.00,VWS V14.00,2013-08-30 14:49:00,
2013-08-30 09:55:00,74.8,66.7,29.83,SE,138,0.0,4.0,76,0.00,,SKC,0.00,566.00,VWS V14.00,2013-08-30 14:55:00,
2013-08-30 10:00:00,74.9,66.8,29.83,NNE,32,3.0,4.0,76,0.00,,SKC,0.00,594.00,VWS V14.00,2013-08-30 15:00:00,
2013-08-30 10:05:00,75.1,67.0,29.83,WNW,290,1.0,2.0,76,0.00,,SKC,0.00,564.00,VWS V14.00,2013-08-30 15:05:00,
2013-08-30 10:10:00,75.4,67.3,29.83,South,188,1.0,4.0,76,0.00,,SKC,0.00,450.00,VWS V14.00,2013-08-30 15:10:00,
2013-08-30 10:15:00,75.5,67.0,29.83,East,82,1.0,2.0,75,0.00,,SKC,0.00,243.00,VWS V14.00,2013-08-30 15:15:00,
2013-08-30 10:20:00,75.6,67.1,29.83,NE,56,1.0,5.0,75,0.00,,SKC,0.00,534.00,VWS V14.00,2013-08-30 15:20:00,
2013-08-30 10:25:00,75.6,67.1,29.84,NNE,15,2.0,2.0,75,0.00,,SKC,0.00,239.00,VWS V14.00,2013-08-30 15:25:00,
2013-08-30 10:30:00,75.5,67.0,29.84,NE,43,3.0,3.0,75,0.00,,SKC,0.00,306.00,VWS V14.00,2013-08-30 15:30:00,
2013-08-30 10:35:00,75.5,67.4,29.84,NE,44,2.0,2.0,76,0.00,,SKC,0.00,272.00,VWS V14.00,2013-08-30 15:35:00,
2013-08-30 10:40:00,75.5,67.4,29.84,North,355,2.0,2.0,76,0.00,,SKC,0.00,190.00,VWS V14.00,2013-08-30 15:40:00,
2013-08-30 10:45:00,75.5,67.0,29.84,NNW,333,2.0,2.0,75,0.00,,SKC,0.00,190.00,VWS V14.00,2013-08-30 15:45:00,
2013-08-30 10:50:00,75.8,67.3,29.83,East,94,0.0,4.0,75,0.00,,SKC,0.00,693.00,VWS V14.00,2013-08-30 15:50:00,
2013-08-30 10:55:00,76.2,67.7,29.83,SE,139,1.0,3.0,75,0.00,,SKC,0.00,751.00,VWS V14.00,2013-08-30 15:55:00,
2013-08-30 11:00:00,76.9,68.0,29.83,ENE,75,1.0,3.0,74,0.00,,SKC,0.00,373.00,VWS V14.00,2013-08-30 16:00:00,
2013-08-30 11:05:00,77.4,67.7,29.83,ENE,67,0.0,5.0,72,0.00,,SKC,0.00,297.00,VWS V14.00,2013-08-30 16:05:00,
2013-08-30 11:10:00,77.7,68.0,29.83,ESE,106,0.0,5.0,72,0.00,,SKC,0.00,701.00,VWS V14.00,2013-08-30 16:10:00,
2013-08-30 11:15:00,78.2,68.0,29.83,WSW,243,3.0,3.0,71,0.00,,SKC,0.00,726.00,VWS V14.00,2013-08-30 16:15:00,
2013-08-30 11:20:00,78.7,67.7,29.84,SE,132,1.0,3.0,69,0.00,,SKC,0.00,689.00,VWS V14.00,2013-08-30 16:20:00,
2013-08-30 11:25:00,79.1,68.1,29.84,ENE,71,2.0,2.0,69,0.00,,SKC,0.00,700.00,VWS V14.00,2013-08-30 16:25:00,
2013-08-30 11:30:00,79.4,67.5,29.84,NE,49,2.0,6.0,67,0.00,,SKC,0.00,698.00,VWS V14.00,2013-08-30 16:30:00,
2013-08-30 11:35:00,79.6,67.2,29.84,ENE,77,0.0,4.0,66,0.00,,SKC,0.00,703.00,VWS V14.00,2013-08-30 16:35:00,
2013-08-30 11:40:00,79.6,67.2,29.84,ESE,106,4.0,5.0,66,0.00,,SKC,0.00,715.00,VWS V14.00,2013-08-30 16:40:00,
2013-08-30 11:45:00,79.3,67.4,29.84,ENE,78,1.0,4.0,67,0.00,,SKC,0.00,724.00,VWS V14.00,2013-08-30 16:45:00,
2013-08-30 11:50:00,79.6,67.2,29.83,ESE,103,1.0,5.0,66,0.00,,SKC,0.00,726.00,VWS V14.00,2013-08-30 16:50:00,
2013-08-30 11:55:00,79.8,67.4,29.83,East,84,2.0,5.0,66,0.00,,SKC,0.00,731.00,VWS V14.00,2013-08-30 16:55:00,
2013-08-30 12:00:00,80.0,67.2,29.83,NE,52,2.0,4.0,65,0.00,,SKC,0.00,742.00,VWS V14.00,2013-08-30 17:00:00,
2013-08-30 12:05:00,79.9,67.1,29.83,NE,55,3.0,7.0,65,0.00,,SKC,0.00,747.00,VWS V14.00,2013-08-30 17:05:00,
2013-08-30 12:10:00,79.3,66.5,29.83,East,88,1.0,3.0,65,0.00,,SKC,0.00,747.00,VWS V14.00,2013-08-30 17:10:00,
2013-08-30 12:15:00,79.3,67.0,29.83,NE,44,2.0,5.0,66,0.00,,SKC,0.00,751.00,VWS V14.00,2013-08-30 17:15:00,
2013-08-30 12:20:00,79.6,66.8,29.84,NNW,333,1.0,4.0,65,0.00,,SKC,0.00,756.00,VWS V14.00,2013-08-30 17:20:00,
2013-08-30 12:25:00,80.1,67.7,29.83,WNW,302,0.0,4.0,66,0.00,,SKC,0.00,761.00,VWS V14.00,2013-08-30 17:25:00,
2013-08-30 12:30:00,80.5,67.7,29.83,ESE,103,3.0,4.0,65,0.00,,SKC,0.00,761.00,VWS V14.00,2013-08-30 17:30:00,
2013-08-30 12:35:00,81.0,68.1,29.83,NNW,335,2.0,3.0,65,0.00,,SKC,0.00,766.00,VWS V14.00,2013-08-30 17:35:00,
2013-08-30 12:40:00,81.5,68.2,29.83,West,259,3.0,5.0,64,0.00,,SKC,0.00,770.00,VWS V14.00,2013-08-30 17:40:00,
2013-08-30 12:45:00,81.7,67.9,29.83,NNW,340,2.0,2.0,63,0.00,,SKC,0.00,766.00,VWS V14.00,2013-08-30 17:45:00,
2013-08-30 12:50:00,82.0,68.2,29.83,North,355,1.0,3.0,63,0.00,,SKC,0.00,765.00,VWS V14.00,2013-08-30 17:50:00,
2013-08-30 12:55:00,82.1,68.3,29.83,East,91,0.0,2.0,63,0.00,,SKC,0.00,780.00,VWS V14.00,2013-08-30 17:55:00,
2013-08-30 13:00:00,81.9,68.1,29.83,North,5,3.0,7.0,63,0.00,,SKC,0.00,780.00,VWS V14.00,2013-08-30 18:00:00,
2013-08-30 13:05:00,82.1,67.8,29.83,West,273,1.0,5.0,62,0.00,,SKC,0.00,782.00,VWS V14.00,2013-08-30 18:05:00,
2013-08-30 13:10:00,82.5,68.2,29.83,ESE,103,0.0,3.0,62,0.00,,SKC,0.00,782.00,VWS V14.00,2013-08-30 18:10:00,
2013-08-30 13:15:00,83.0,68.2,29.82,WNW,288,2.0,4.0,61,0.00,,SKC,0.00,786.00,VWS V14.00,2013-08-30 18:15:00,
2013-08-30 13:20:00,83.3,68.0,29.82,ENE,67,0.0,3.0,60,0.00,,SKC,0.00,780.00,VWS V14.00,2013-08-30 18:20:00,
2013-08-30 13:25:00,83.4,68.6,29.82,NW,310,2.0,5.0,61,0.00,,SKC,0.00,782.00,VWS V14.00,2013-08-30 18:25:00,
2013-08-30 13:30:00,83.3,68.0,29.82,NNE,15,3.0,5.0,60,0.00,,SKC,0.00,779.00,VWS V14.00,2013-08-30 18:30:00,
2013-08-30 13:35:00,83.2,68.4,29.82,NE,36,2.0,6.0,61,0.00,,SKC,0.00,780.00,VWS V14.00,2013-08-30 18:35:00,
2013-08-30 13:40:00,83.1,68.3,29.82,NW,315,0.0,5.0,61,0.00,,SKC,0.00,780.00,VWS V14.00,2013-08-30 18:40:00,
2013-08-30 13:46:00,83.2,67.9,29.82,ENE,71,0.0,4.0,60,0.00,,SKC,0.00,777.00,VWS V14.00,2013-08-30 18:46:00,
2013-08-30 13:51:00,83.4,68.1,29.82,NNW,343,1.0,3.0,60,0.00,,SKC,0.00,777.00,VWS V14.00,2013-08-30 18:51:00,
2013-08-30 13:56:00,83.6,68.7,29.82,North,355,1.0,3.0,61,0.00,,SKC,0.00,772.00,VWS V14.00,2013-08-30 18:56:00,
2013-08-30 14:01:00,83.8,68.4,29.82,NNW,335,4.0,4.0,60,0.00,,SKC,0.00,770.00,VWS V14.00,2013-08-30 19:01:00,
2013-08-30 14:06:00,84.1,68.7,29.82,NE,41,2.0,5.0,60,0.00,,SKC,0.00,768.00,VWS V14.00,2013-08-30 19:06:00,
2013-08-30 14:11:00,83.8,68.4,29.82,NNW,337,1.0,4.0,60,0.00,,SKC,0.00,763.00,VWS V14.00,2013-08-30 19:11:00,
2013-08-30 14:16:00,84.2,68.3,29.82,NNE,14,3.0,4.0,59,0.00,,SKC,0.00,758.00,VWS V14.00,2013-08-30 19:16:00,
2013-08-30 14:21:00,84.5,68.1,29.82,NE,40,0.0,5.0,58,0.00,,SKC,0.00,756.00,VWS V14.00,2013-08-30 19:21:00,
2013-08-30 14:26:00,85.1,69.2,29.82,ENE,74,1.0,4.0,59,0.00,,SKC,0.00,751.00,VWS V14.00,2013-08-30 19:26:00,
2013-08-30 14:31:00,85.1,68.2,29.82,ENE,77,0.0,6.0,57,0.00,,SKC,0.00,745.00,VWS V14.00,2013-08-30 19:31:00,
2013-08-30 14:36:00,85.4,69.0,29.82,ENE,64,1.0,4.0,58,0.00,,SKC,0.00,740.00,VWS V14.00,2013-08-30 19:36:00,
2013-08-30 14:41:00,85.6,68.6,29.82,WNW,294,0.0,4.0,57,0.00,,SKC,0.00,733.00,VWS V14.00,2013-08-30 19:41:00,
2013-08-30 14:46:00,85.1,68.2,29.81,ENE,73,0.0,5.0,57,0.00,,SKC,0.00,729.00,VWS V14.00,2013-08-30 19:46:00,
2013-08-30 14:51:00,84.5,68.1,29.81,NE,46,2.0,10.0,58,0.00,,SKC,0.00,722.00,VWS V14.00,2013-08-30 19:51:00,
2013-08-30 14:56:00,84.1,68.7,29.81,ESE,119,1.0,6.0,60,0.00,,SKC,0.00,717.00,VWS V14.00,2013-08-30 19:56:00,
2013-08-30 15:01:00,84.2,68.8,29.81,East,98,2.0,4.0,60,0.00,,SKC,0.00,703.00,VWS V14.00,2013-08-30 20:01:00,
2013-08-30 15:06:00,84.2,67.8,29.81,ESE,109,3.0,6.0,58,0.00,,SKC,0.00,696.00,VWS V14.00,2013-08-30 20:06:00,
2013-08-30 15:11:00,83.6,68.3,29.81,NE,53,0.0,8.0,60,0.00,,SKC,0.00,691.00,VWS V14.00,2013-08-30 20:11:00,
2013-08-30 15:16:00,83.4,68.6,29.81,East,85,4.0,9.0,61,0.00,,SKC,0.00,687.00,VWS V14.00,2013-08-30 20:16:00,
2013-08-30 15:21:00,83.4,68.6,29.81,ESE,111,7.0,9.0,61,0.00,,SKC,0.00,677.00,VWS V14.00,2013-08-30 20:21:00,
2013-08-30 15:26:00,83.1,68.7,29.80,ENE,71,2.0,8.0,62,0.00,,SKC,0.00,670.00,VWS V14.00,2013-08-30 20:26:00,
2013-08-30 15:31:00,83.1,68.7,29.80,East,93,1.0,7.0,62,0.00,,SKC,0.00,661.00,VWS V14.00,2013-08-30 20:31:00,
2013-08-30 15:36:00,83.6,69.2,29.81,NE,47,2.0,4.0,62,0.00,,SKC,0.00,652.00,VWS V14.00,2013-08-30 20:36:00,
2013-08-30 15:41:00,83.7,68.3,29.81,North,5,3.0,6.0,60,0.00,,SKC,0.00,642.00,VWS V14.00,2013-08-30 20:41:00,
2013-08-30 15:46:00,83.3,68.0,29.81,East,101,6.0,11.0,60,0.00,,SKC,0.00,633.00,VWS V14.00,2013-08-30 20:46:00,
2013-08-30 15:51:00,83.1,68.7,29.81,NNW,346,2.0,6.0,62,0.00,,SKC,0.00,621.00,VWS V14.00,2013-08-30 20:51:00,
2013-08-30 15:56:00,83.3,68.9,29.81,East,86,5.0,6.0,62,0.00,,SKC,0.00,610.00,VWS V14.00,2013-08-30 20:56:00,
2013-08-30 16:01:00,83.6,68.3,29.80,East,80,4.0,11.0,60,0.00,,SKC,0.00,601.00,VWS V14.00,2013-08-30 21:01:00,
2013-08-30 16:06:00,83.3,68.0,29.80,East,82,7.0,10.0,60,0.00,,SKC,0.00,592.00,VWS V14.00,2013-08-30 21:06:00,
2013-08-30 16:11:00,82.9,68.6,29.80,East,98,9.0,9.0,62,0.00,,SKC,0.00,580.00,VWS V14.00,2013-08-30 21:11:00,
2013-08-30 16:16:00,82.7,67.4,29.80,ESE,112,7.0,12.0,60,0.00,,SKC,0.00,570.00,VWS V14.00,2013-08-30 21:16:00,
2013-08-30 16:21:00,82.6,67.8,29.80,East,81,3.0,6.0,61,0.00,,SKC,0.00,555.00,VWS V14.00,2013-08-30 21:21:00,
2013-08-30 16:26:00,82.7,68.4,29.80,ESE,119,3.0,7.0,62,0.00,,SKC,0.00,547.00,VWS V14.00,2013-08-30 21:26:00,
2013-08-30 16:31:00,82.7,67.9,29.80,NE,34,4.0,11.0,61,0.00,,SKC,0.00,534.00,VWS V14.00,2013-08-30 21:31:00,
2013-08-30 16:36:00,82.7,67.9,29.80,East,101,2.0,7.0,61,0.00,,SKC,0.00,526.00,VWS V14.00,2013-08-30 21:36:00,
2013-08-30 16:41:00,82.6,67.8,29.80,East,90,2.0,11.0,61,0.00,,SKC,0.00,506.00,VWS V14.00,2013-08-30 21:41:00,
2013-08-30 16:46:00,82.5,67.2,29.80,ESE,112,8.0,14.0,60,0.00,,SKC,0.00,496.00,VWS V14.00,2013-08-30 21:46:00,
2013-08-30 16:51:00,82.3,67.5,29.80,SE,124,6.0,7.0,61,0.00,,SKC,0.00,482.00,VWS V14.00,2013-08-30 21:51:00,
2013-08-30 16:56:00,82.2,67.4,29.80,East,92,2.0,12.0,61,0.00,,SKC,0.00,468.00,VWS V14.00,2013-08-30 21:56:00,
2013-08-30 17:01:00,82.2,67.4,29.80,ENE,71,3.0,7.0,61,0.00,,SKC,0.00,459.00,VWS V14.00,2013-08-30 22:01:00,
2013-08-30 17:06:00,82.1,67.3,29.80,NE,48,2.0,6.0,61,0.00,,SKC,0.00,439.00,VWS V14.00,2013-08-30 22:06:00,
2013-08-30 17:11:00,82.1,67.8,29.80,NE,47,0.0,4.0,62,0.00,,SKC,0.00,431.00,VWS V14.00,2013-08-30 22:11:00,
2013-08-30 17:16:00,82.4,68.1,29.79,ENE,63,4.0,6.0,62,0.00,,SKC,0.00,413.00,VWS V14.00,2013-08-30 22:16:00,
2013-08-30 17:22:00,82.2,67.4,29.79,SE,138,3.0,5.0,61,0.00,,SKC,0.00,399.00,VWS V14.00,2013-08-30 22:22:00,
2013-08-30 17:27:00,82.0,67.2,29.79,East,83,3.0,8.0,61,0.00,,SKC,0.00,385.00,VWS V14.00,2013-08-30 22:27:00,
2013-08-30 17:32:00,82.0,67.7,29.79,ESE,119,5.0,8.0,62,0.00,,SKC,0.00,373.00,VWS V14.00,2013-08-30 22:32:00,
2013-08-30 17:37:00,81.9,67.6,29.79,East,88,2.0,7.0,62,0.00,,SKC,0.00,357.00,VWS V14.00,2013-08-30 22:37:00,
2013-08-30 17:42:00,81.8,67.5,29.79,East,94,2.0,5.0,62,0.00,,SKC,0.00,345.00,VWS V14.00,2013-08-30 22:42:00,
2013-08-30 17:47:00,81.8,67.5,29.79,East,93,5.0,6.0,62,0.00,,SKC,0.00,327.00,VWS V14.00,2013-08-30 22:47:00,
2013-08-30 17:52:00,81.6,67.8,29.79,NE,36,0.0,5.0,63,0.00,,SKC,0.00,315.00,VWS V14.00,2013-08-30 22:52:00,
2013-08-30 17:57:00,81.6,68.2,29.78,ESE,107,5.0,5.0,64,0.00,,SKC,0.00,297.00,VWS V14.00,2013-08-30 22:57:00,
2013-08-30 18:02:00,81.6,68.2,29.78,ESE,111,1.0,5.0,64,0.00,,SKC,0.00,285.00,VWS V14.00,2013-08-30 23:02:00,
2013-08-30 18:07:00,81.7,67.9,29.79,East,85,3.0,7.0,63,0.00,,SKC,0.00,265.00,VWS V14.00,2013-08-30 23:07:00,
2013-08-30 18:12:00,81.5,67.7,29.79,ENE,75,2.0,5.0,63,0.00,,SKC,0.00,253.00,VWS V14.00,2013-08-30 23:12:00,
2013-08-30 18:17:00,81.6,67.8,29.79,ESE,113,4.0,6.0,63,0.00,,SKC,0.00,236.00,VWS V14.00,2013-08-30 23:17:00,
2013-08-30 18:22:00,81.6,68.2,29.79,East,86,3.0,3.0,64,0.00,,SKC,0.00,221.00,VWS V14.00,2013-08-30 23:22:00,
2013-08-30 18:27:00,81.4,68.1,29.79,East,100,4.0,7.0,64,0.00,,SKC,0.00,206.00,VWS V14.00,2013-08-30 23:27:00,
2013-08-30 18:32:00,81.2,67.4,29.78,East,90,1.0,7.0,63,0.00,,SKC,0.00,183.00,VWS V14.00,2013-08-30 23:32:00,
2013-08-30 18:37:00,81.0,67.7,29.78,ENE,75,1.0,3.0,64,0.00,,SKC,0.00,163.00,VWS V14.00,2013-08-30 23:37:00,
2013-08-30 18:42:00,81.0,68.1,29.79,ENE,75,1.0,2.0,65,0.00,,SKC,0.00,149.00,VWS V14.00,2013-08-30 23:42:00,
2013-08-30 18:47:00,80.9,67.6,29.79,ENE,78,3.0,3.0,64,0.00,,SKC,0.00,132.00,VWS V14.00,2013-08-30 23:47:00,
2013-08-30 18:52:00,80.7,67.4,29.78,ESE,115,2.0,4.0,64,0.00,,SKC,0.00,114.00,VWS V14.00,2013-08-30 23:52:00,
2013-08-30 18:57:00,80.4,67.6,29.78,ESE,119,0.0,4.0,65,0.00,,SKC,0.00,104.00,VWS V14.00,2013-08-30 23:57:00,
2013-08-30 19:02:00,80.5,68.1,29.78,ESE,119,0.0,2.0,66,0.00,,SKC,0.00,86.00,VWS V14.00,2013-08-31 00:02:00,
2013-08-30 19:07:00,80.6,68.2,29.78,ESE,117,1.0,2.0,66,0.00,,SKC,0.00,72.00,VWS V14.00,2013-08-31 00:07:00,
2013-08-30 19:12:00,80.4,68.0,29.78,ESE,117,0.0,2.0,66,0.00,,SKC,0.00,58.00,VWS V14.00,2013-08-31 00:12:00,
2013-08-30 19:17:00,80.2,68.3,29.78,ESE,117,1.0,1.0,67,0.00,,SKC,0.00,47.00,VWS V14.00,2013-08-31 00:17:00,
2013-08-30 19:22:00,80.0,68.5,29.78,ESE,117,0.0,2.0,68,0.00,,SKC,0.00,25.00,VWS V14.00,2013-08-31 00:22:00,
2013-08-30 19:27:00,79.6,68.1,29.78,ESE,116,1.0,2.0,68,0.00,,SKC,0.00,21.00,VWS V14.00,2013-08-31 00:27:00,
2013-08-30 19:32:00,79.2,67.7,29.78,ESE,116,0.0,1.0,68,0.00,,SKC,0.00,19.00,VWS V14.00,2013-08-31 00:32:00,
2013-08-30 19:37:00,78.7,67.7,29.78,ESE,116,0.0,0.0,69,0.00,,SKC,0.00,18.00,VWS V14.00,2013-08-31 00:37:00,
2013-08-30 19:42:00,78.5,67.9,29.78,ESE,116,0.0,1.0,70,0.00,,SKC,0.00,14.00,VWS V14.00,2013-08-31 00:42:00,
2013-08-30 19:47:00,78.2,67.6,29.78,ESE,116,0.0,0.0,70,0.00,,SKC,0.00,11.00,VWS V14.00,2013-08-31 00:47:00,
2013-08-30 19:52:00,78.0,67.8,29.78,ESE,116,0.0,0.0,71,0.00,,SKC,0.00,9.00,VWS V14.00,2013-08-31 00:52:00,
2013-08-30 19:57:00,77.8,68.1,29.77,ESE,116,0.0,0.0,72,0.00,,SKC,0.00,5.00,VWS V14.00,2013-08-31 00:57:00,
2013-08-30 20:02:00,77.1,67.8,29.77,ESE,116,0.0,1.0,73,0.00,,SKC,0.00,0.00,VWS V14.00,2013-08-31 01:02:00,
2013-08-30 20:07:00,76.4,67.1,29.77,ESE,116,0.0,0.0,73,0.00,,SKC,0.00,0.00,VWS V14.00,2013-08-31 01:07:00,
2013-08-30 20:12:00,76.0,67.5,29.77,ESE,116,0.0,0.0,75,0.00,,SKC,0.00,0.00,VWS V14.00,2013-08-31 01:12:00,
2013-08-30 20:17:00,75.3,66.8,29.77,ESE,116,0.0,0.0,75,0.00,,SKC,0.00,0.00,VWS V14.00,2013-08-31 01:17:00,
2013-08-30 20:22:00,74.7,67.0,29.77,ESE,116,0.0,0.0,77,0.00,,SKC,0.00,0.00,VWS V14.00,2013-08-31 01:22:00,
2013-08-30 20:27:00,74.2,66.5,29.77,ESE,116,0.0,0.0,77,0.00,,SKC,0.00,0.00,VWS V14.00,2013-08-31 01:27:00,
2013-08-30 20:32:00,73.6,66.3,29.77,ESE,116,0.0,0.0,78,0.00,,SKC,0.00,0.00,VWS V14.00,2013-08-31 01:32:00,
2013-08-30 20:37:00,73.1,66.2,29.77,ESE,116,0.0,0.0,79,0.00,,SKC,0.00,0.00,VWS V14.00,2013-08-31 01:37:00,
2013-08-30 20:42:00,72.5,66.0,29.76,ESE,116,0.0,0.0,80,0.00,,SKC,0.00,0.00,VWS V14.00,2013-08-31 01:42:00,
2013-08-30 20:47:00,72.1,65.6,29.77,ESE,116,0.0,0.0,80,0.00,,SKC,0.00,0.00,VWS V14.00,2013-08-31 01:47:00,
2013-08-30 20:52:00,72.0,65.9,29.77,ESE,116,0.0,0.0,81,0.00,,SKC,0.00,0.00,VWS V14.00,2013-08-31 01:52:00,
2013-08-30 20:57:00,71.7,65.9,29.78,ESE,116,0.0,0.0,82,0.00,,SKC,0.00,0.00,VWS V14.00,2013-08-31 01:57:00,
2013-08-30 21:02:00,71.4,66.0,29.77,ESE,116,0.0,0.0,83,0.00,,SKC,0.00,0.00,VWS V14.00,2013-08-31 02:02:00,
2013-08-30 21:08:00,71.2,66.1,29.77,ESE,116,0.0,0.0,84,0.00,,SKC,0.00,0.00,VWS V14.00,2013-08-31 02:08:00,
2013-08-30 21:13:00,71.0,66.3,29.77,ESE,116,0.0,0.0,85,0.00,,SKC,0.00,0.00,VWS V14.00,2013-08-31 02:13:00,
2013-08-30 21:18:00,70.8,66.1,29.77,ESE,116,0.0,0.0,85,0.00,,SKC,0.00,0.00,VWS V14.00,2013-08-31 02:18:00,
2013-08-30 21:23:00,70.7,66.3,29.77,ESE,116,0.0,0.0,86,0.00,,SKC,0.00,0.00,VWS V14.00,2013-08-31 02:23:00,
2013-08-30 21:28:00,70.6,66.2,29.77,ESE,116,0.0,0.0,86,0.00,,SKC,0.00,0.00,VWS V14.00,2013-08-31 02:28:00,
2013-08-30 21:33:00,70.6,66.2,29.77,ESE,116,0.0,1.0,86,0.00,,SKC,0.00,0.00,VWS V14.00,2013-08-31 02:33:00,
2013-08-30 21:38:00,70.6,66.2,29.77,ESE,109,0.0,4.0,86,0.00,,SKC,0.00,0.00,VWS V14.00,2013-08-31 02:38:00,
2013-08-30 21:43:00,70.7,66.0,29.77,ESE,109,1.0,2.0,85,0.00,,SKC,0.00,0.00,VWS V14.00,2013-08-31 02:43:00,
2013-08-30 21:48:00,70.9,66.2,29.77,ESE,109,0.0,1.0,85,0.00,,SKC,0.00,0.00,VWS V14.00,2013-08-31 02:48:00,
2013-08-30 21:53:00,71.0,66.3,29.77,ESE,109,0.0,1.0,85,0.00,,SKC,0.00,0.00,VWS V14.00,2013-08-31 02:53:00,
2013-08-30 21:58:00,71.1,66.4,29.77,ESE,109,0.0,1.0,85,0.00,,SKC,0.00,0.00,VWS V14.00,2013-08-31 02:58:00,
2013-08-30 22:03:00,71.1,66.0,29.77,ESE,109,0.0,0.0,84,0.00,,SKC,0.00,0.00,VWS V14.00,2013-08-31 03:03:00,
2013-08-30 22:08:00,71.1,66.0,29.77,East,98,1.0,2.0,84,0.00,,SKC,0.00,0.00,VWS V14.00,2013-08-31 03:08:00,
2013-08-30 22:13:00,71.0,65.9,29.77,East,98,0.0,1.0,84,0.00,,SKC,0.00,0.00,VWS V14.00,2013-08-31 03:13:00,
2013-08-30 22:18:00,70.9,65.8,29.77,East,98,0.0,1.0,84,0.00,,SKC,0.00,0.00,VWS V14.00,2013-08-31 03:18:00,
2013-08-30 22:23:00,70.9,65.8,29.77,East,98,0.0,1.0,84,0.00,,SKC,0.00,0.00,VWS V14.00,2013-08-31 03:23:00,
2013-08-30 22:28:00,70.9,65.8,29.78,East,98,0.0,0.0,84,0.00,,SKC,0.00,0.00,VWS V14.00,2013-08-31 03:28:00,
2013-08-30 22:33:00,70.8,65.7,29.78,East,98,1.0,2.0,84,0.00,,SKC,0.00,0.00,VWS V14.00,2013-08-31 03:33:00,
2013-08-30 22:38:00,70.6,65.5,29.77,East,98,0.0,0.0,84,0.00,,SKC,0.00,0.00,VWS V14.00,2013-08-31 03:38:00,
2013-08-30 22:43:00,70.4,65.7,29.78,East,98,0.0,1.0,85,0.00,,SKC,0.00,0.00,VWS V14.00,2013-08-31 03:43:00,
2013-08-30 22:48:00,70.2,65.5,29.78,East,98,0.0,0.0,85,0.00,,SKC,0.00,0.00,VWS V14.00,2013-08-31 03:48:00,
2013-08-30 22:53:00,70.0,65.3,29.78,East,98,0.0,0.0,85,0.00,,SKC,0.00,0.00,VWS V14.00,2013-08-31 03:53:00,
2013-08-30 22:58:00,69.8,65.1,29.78,East,98,0.0,0.0,85,0.00,,SKC,0.00,0.00,VWS V14.00,2013-08-31 03:58:00,
2013-08-30 23:01:00,69.5,64.8,29.78,East,98,0.0,0.0,85,0.00,,SKC,0.00,0.00,VWS V14.00,2013-08-31 04:01:00,
2013-08-30 23:03:00,69.4,65.0,29.78,East,98,0.0,0.0,86,0.00,,SKC,0.00,0.00,VWS V14.00,2013-08-31 04:03:00,
2013-08-30 23:05:00,69.2,64.8,29.78,East,98,0.0,0.0,86,0.00,,SKC,0.00,0.00,VWS V14.00,2013-08-31 04:05:00,
2013-08-30 23:08:00,68.9,64.9,29.78,ESE,104,2.0,2.0,87,0.00,,SKC,0.00,0.00,VWS V14.00,2013-08-31 04:08:00,
2013-08-30 23:13:00,68.7,64.7,29.78,ESE,104,0.0,3.0,87,0.00,,SKC,0.00,0.00,VWS V14.00,2013-08-31 04:13:00,
2013-08-30 23:15:00,68.7,64.7,29.78,ESE,104,1.0,1.0,87,0.00,,SKC,0.00,0.00,VWS V14.00,2013-08-31 04:15:00,
2013-08-30 23:20:00,68.6,64.6,29.78,ESE,104,0.0,2.0,87,0.00,,SKC,0.00,0.00,VWS V14.00,2013-08-31 04:20:00,
2013-08-30 23:25:00,68.6,64.6,29.77,ESE,104,0.0,1.0,87,0.00,,SKC,0.00,0.00,VWS V14.00,2013-08-31 04:25:00,
2013-08-30 23:30:00,68.6,64.9,29.78,ESE,104,1.0,1.0,88,0.00,,SKC,0.00,0.00,VWS V14.00,2013-08-31 04:30:00,
2013-08-30 23:35:00,68.8,65.1,29.78,ESE,104,0.0,2.0,88,0.00,,SKC,0.00,0.00,VWS V14.00,2013-08-31 04:35:00,
2013-08-30 23:40:00,68.8,64.8,29.78,ESE,104,1.0,1.0,87,0.00,,SKC,0.00,0.00,VWS V14.00,2013-08-31 04:40:00,
2013-08-30 23:45:00,68.8,64.8,29.78,ESE,104,0.0,2.0,87,0.00,,SKC,0.00,0.00,VWS V14.00,2013-08-31 04:45:00,
2013-08-30 23:50:00,68.8,64.8,29.77,ESE,104,0.0,2.0,87,0.00,,SKC,0.00,0.00,VWS V14.00,2013-08-31 04:50:00,
2013-08-30 23:55:00,68.9,64.9,29.77,ESE,104,0.0,1.0,87,0.00,,SKC,0.00,0.00,VWS V14.00,2013-08-31 04:55:00,